Location: Bacharowice
(49.9333°N, 19.5833°E)
Time: 01:26:14
(UTC+00:00)

SOZ - Pass Details

Date: 01 October 2021
Orbit: 306 x 16685 km, 52.0° (Epoch: 24 October)

Event Time Altitude Azimuth Distance (km) Brightness Sun altitude
Exits shadow 20:35:17 12° 115° (ESE) 14,027 11.9 -37.5°
Maximum altitude 20:45:47 13° 106° (ESE) 12,100 11.7 -38.5°
Drops below altitude 10° 20:58:30 10° 89° (E) 9,728 11.3 -39.6°
Sets 21:09:32 0° 67° (ENE) 8,105 11.2 -40.5°
